1509264000.93,62005,10.13,70956.0,-3.29,-3.95,-3.95,0,*59
1509264002.16,62006,10.13,70948.3,-3.29,-3.91,-3.91,0,*5A
1509264003.39,62007,10.13,70956.5,-3.29,-3.91,-3.91,0,*5B
1509264004.62,62008,10.06,70964.5,-3.29,-3.95,-3.95,0,*54
1509264005.85,62009,10.06,70936.5,-3.29,-3.91,-3.95,0,*51
1509264007.08,62010,10.13,70920.5,-3.29,-3.91,-3.91,0,*5D
1509264008.31,62011,10.13,70934.3,-3.29,-3.91,-3.83,0,*5F
1509264009.54,62012,10.13,70956.5,-3.29,-3.91,-3.91,0,*5F
1509264010.77,62013,10.13,70914.0,-3.29,-3.95,-3.91,0,*5A
1509264011.99,62014,10.13,70912.3,-3.29,-3.95,-3.95,0,*59
1509264013.22,62015,10.13,70910.8,-3.29,-3.95,-3.91,0,*5C
1509264014.45,62016,10.13,70912.8,-3.29,-3.95,-3.91,0,*5F
1509264015.68,62017,10.13,70908.8,-3.29,-3.91,-3.91,0,*5A
1509264016.91,62018,10.13,70912.3,-3.29,-3.95,-3.95,0,*55
1509264018.14,62019,10.13,70916.5,-3.29,-3.95,-3.91,0,*50
1509264019.37,62020,10.13,70904.3,-3.29,-3.95,-3.91,0,*5A
1509264020.62,62021,10.13,70882.5,-3.33,-4.01,-3.95,0,*5E
1509264021.9,62022,10.13,70950.5,-3.33,-4.01,-4.01,0,*57
1509264023.12,62023,10.13,70966.8,-3.29,-4.05,-3.95,0,*53
1509264024.38,62024,10.13,70986.8,-3.33,-4.01,-3.95,0,*5B
1509264025.6,62025,10.13,71000.5,-3.29,-4.05,-3.95,0,*55
1509264026.82,62026,10.13,71002.5,-3.29,-3.95,-3.95,0,*58
1509264028.05,62027,10.13,70982.8,-3.29,-3.91,-3.91,0,*59
1509264029.28,62028,10.13,70980.5,-3.29,-3.95,-3.91,0,*52
1509264030.52,62029,10.13,70976.0,-3.29,-3.91,-3.91,0,*57
1509264031.75,62030,10.13,70988.3,-3.29,-3.95,-3.91,0,*5B
1509264032.97,62031,10.13,70996.3,-3.29,-3.91,-3.83,0,*5D
1509264034.2,62032,10.13,70976.3,-3.29,-3.91,-3.83,0,*5E
1509264035.43,62033,10.13,70994.3,-3.29,-3.91,-3.91,0,*5C
1509264036.66,62034,10.13,70948.0,-3.29,-3.95,-3.91,0,*5F
1509264037.89,62035,10.06,70926.5,-3.29,-3.91,-3.95,0,*5E
1509264039.12,62036,10.13,70878.5,-3.29,-3.91,-3.91,0,*59
1509264040.36,62037,10.13,70888.5,-3.29,-3.91,-3.91,0,*58
1509264041.58,62038,10.13,70902.0,-3.29,-3.95,-3.91,0,*53
1509264042.81,62039,10.13,70902.3,-3.29,-3.95,-3.91,0,*52
1509264044.04,62040,10.13,70884.5,-3.29,-3.95,-3.95,0,*58
1509264045.27,62041,10.13,70858.3,-3.29,-3.91,-3.91,0,*59
1509264046.49,62042,10.13,70798.8,-3.29,-4.09,-3.95,0,*58
1509264047.71,62043,10.13,70784.3,-3.29,-4.05,-4.05,0,*5B
1509264048.93,62044,10.13,70750.3,-3.29,-4.09,-4.05,0,*50
1509264050.15,62045,10.13,70778.5,-3.29,-4.05,-4.05,0,*5D
1509264051.38,62046,10.13,70794.0,-3.29,-4.05,-4.05,0,*5E
1509264052.6,62047,10.13,70776.5,-3.29,-4.09,-4.09,0,*5F
1509264053.82,62048,10.13,70810.3,-3.29,-4.05,-4.09,0,*5C
1509264055.04,62049,10.13,70844.8,-3.33,-4.13,-4.13,0,*5A
1509264056.26,62050,10.13,70870.0,-3.29,-4.09,-4.05,0,*55
1509264057.48,62051,10.13,70826.5,-3.29,-4.09,-4.09,0,*58
1509264058.71,62052,10.13,70852.8,-3.33,-4.09,-4.13,0,*5B
1509264059.94,62053,10.13,70892.5,-3.33,-4.09,-4.13,0,*5A
1509264061.17,62054,10.13,70878.3,-3.33,-4.13,-4.13,0,*56
1509264062.39,62055,10.13,70890.0,-3.29,-4.09,-4.09,0,*5C
1509264063.61,62056,10.13,70872.8,-3.29,-4.09,-4.05,0,*53
1509264064.83,62057,10.13,70798.8,-3.29,-4.09,-4.09,0,*5E
1509264066.05,62058,10.13,70872.0,-3.33,-4.13,-4.13,0,*5A
1509264067.28,62059,10.13,70908.0,-3.33,-4.13,-4.13,0,*5B
1509264068.51,62060,10.13,70920.0,-3.33,-4.13,-4.13,0,*51
1509264069.74,62061,10.13,70960.5,-3.33,-4.13,-4.13,0,*50
1509264070.94,62062,10.13,70950.3,-3.35,-4.13,-4.13,0,*55
1509264072.17,62063,10.13,70966.3,-3.33,-4.13,-4.13,0,*52
1509264073.37,62064,10.13,70984.3,-3.35,-4.13,-4.09,0,*58
1509264074.57,62065,10.13,70970.8,-3.35,-4.09,-4.09,0,*52
1509264075.79,62066,10.13,70936.3,-3.33,-4.13,-4.13,0,*57
1509264077.02,62067,10.13,70910.8,-3.33,-4.13,-4.13,0,*56
1509264078.24,62068,10.13,70908.3,-3.33,-4.13,-4.09,0,*52
1509264079.47,62069,10.13,70902.8,-3.33,-4.09,-4.09,0,*58
1509264080.69,62070,10.13,70904.5,-3.33,-4.09,-4.09,0,*50
1509264081.89,62071,10.13,70932.3,-3.35,-4.09,-4.13,0,*5C
1509264083.12,62072,10.13,70930.3,-3.33,-4.13,-4.09,0,*59
1509264084.32,62073,10.13,70922.5,-3.35,-4.13,-4.09,0,*5E
1509264085.55,62074,10.13,70882.8,-3.33,-4.13,-4.13,0,*54
1509264086.77,62075,10.13,70888.5,-3.33,-4.09,-4.09,0,*55
1509264087.97,62076,10.13,70926.3,-3.35,-4.09,-4.13,0,*5B
1509264089.17,62077,10.13,70948.8,-3.35,-4.13,-4.09,0,*5A
1509264090.37,62078,10.13,70952.3,-3.35,-4.13,-4.09,0,*55
1509264091.6,62079,10.13,70936.0,-3.33,-4.09,-4.09,0,*59
1509264092.8,62080,10.13,70934.3,-3.35,-4.09,-4.09,0,*59
1509264094.0,62081,10.13,70930.3,-3.35,-4.13,-4.09,0,*53
1509264095.22,62082,10.13,70936.5,-3.33,-4.09,-4.09,0,*5D
1509264096.42,62083,10.13,70942.8,-3.35,-4.09,-4.09,0,*5A
1509264097.62,62084,10.13,70924.5,-3.35,-4.13,-4.09,0,*56
1509264098.82,62085,10.13,70916.0,-3.35,-4.09,-4.09,0,*5C
1509264100.02,62086,10.13,70908.3,-3.35,-4.09,-4.09,0,*5F
1509264101.22,62087,10.13,70948.3,-3.35,-4.09,-4.09,0,*5E
1509264102.45,62088,10.13,70936.3,-3.33,-4.09,-4.13,0,*5C
1509264103.68,62089,10.13,70926.0,-3.33,-4.13,-4.13,0,*56
1509264104.9,62090,10.13,70926.5,-3.33,-4.13,-4.13,0,*5E
1509264106.11,62091,10.13,70908.0,-3.35,-4.13,-4.13,0,*59
1509264107.31,62092,10.13,70916.5,-3.35,-4.25,-4.13,0,*5F
1509264108.52,62093,10.13,70916.8,-3.35,-4.17,-4.13,0,*5F
1509264109.72,62094,10.13,70926.8,-3.35,-4.17,-4.13,0,*58
1509264110.94,62095,10.13,70926.0,-3.33,-4.17,-4.17,0,*5B
1509264112.14,62096,10.13,70888.5,-3.35,-4.17,-4.17,0,*5E
1509264113.34,62097,10.13,70920.5,-3.35,-4.17,-4.13,0,*5B
1509264114.54,62098,10.13,70902.3,-3.35,-4.17,-4.13,0,*54
1509264115.74,62099,10.13,70900.3,-3.35,-4.13,-4.13,0,*51
1509264116.94,62100,10.13,70920.3,-3.35,-4.13,-4.09,0,*5B
1509264118.15,62101,10.13,70926.8,-3.35,-4.13,-4.13,0,*51
1509264119.35,62102,10.13,70910.8,-3.35,-4.13,-4.09,0,*59
1509264120.55,62103,10.13,70880.8,-3.35,-4.13,-4.09,0,*58
1509264121.75,62104,10.13,70902.0,-3.35,-4.13,-4.09,0,*5F
1509264122.95,62105,10.13,70870.0,-3.35,-4.09,-4.13,0,*5E
1509264124.18,62106,10.13,70878.0,-3.37,-4.17,-4.13,0,*50
1509264125.38,62107,10.13,70898.3,-3.35,-4.13,-4.13,0,*57
1509264126.58,62108,10.13,70886.5,-3.35,-4.13,-4.13,0,*58
1509264127.78,62109,10.13,70880.3,-3.35,-4.09,-4.13,0,*52
1509264128.99,62110,10.13,70902.0,-3.35,-4.13,-4.13,0,*51
1509264130.19,62111,10.13,70918.3,-3.35,-4.09,-4.13,0,*5B
1509264131.41,62112,10.13,70932.5,-3.37,-4.17,-4.17,0,*51
1509264132.63,62113,10.13,70850.8,-3.37,-4.13,-4.17,0,*54
1509264133.85,62114,10.13,70838.0,-3.37,-4.17,-4.17,0,*57
1509264135.08,62115,10.13,70896.5,-3.37,-4.17,-4.13,0,*52
1509264136.3,62116,10.13,70940.8,-3.37,-4.17,-4.17,0,*55
1509264137.52,62117,10.13,70972.3,-3.37,-4.17,-4.17,0,*54
1509264138.74,62118,10.13,70974.8,-3.37,-4.17,-4.17,0,*5B
1509264139.96,62119,10.13,70966.5,-3.37,-4.13,-4.17,0,*5E
1509264141.18,62120,10.13,70964.3,-3.37,-4.13,-4.17,0,*54
1509264142.4,62121,10.13,70962.0,-3.37,-4.17,-4.05,0,*52
1509264143.63,62122,10.13,70966.3,-3.37,-4.17,-4.13,0,*56
1509264144.85,62123,10.13,70970.5,-3.37,-4.13,-4.13,0,*53
1509264146.07,62124,10.13,70946.5,-3.37,-4.13,-4.17,0,*50
1509264147.3,62125,10.13,70938.5,-3.37,-4.13,-4.13,0,*55
1509264148.53,62126,10.13,70924.0,-3.37,-4.13,-4.13,0,*56
1509264149.75,62127,10.13,70918.3,-3.37,-4.17,-4.13,0,*53
1509264150.98,62128,10.13,70922.0,-3.37,-4.13,-4.13,0,*58
1509264152.21,62129,10.13,70910.0,-3.37,-4.13,-4.13,0,*59
1509264153.43,62130,10.13,70908.8,-3.37,-4.13,-4.05,0,*56
1509264154.68,62131,10.13,70898.0,-3.37,-4.05,-4.01,0,*54
1509264155.91,62132,10.13,70900.8,-3.37,-4.13,-4.05,0,*54
1509264157.13,62133,10.13,70912.8,-3.37,-4.13,-4.05,0,*55
1509264158.32,62134,10.13,70930.5,-3.39,-4.13,-4.05,0,*5C
1509264159.55,62135,10.13,70930.0,-3.37,-4.05,-4.05,0,*54
1509264160.77,62136,10.13,70936.3,-3.37,-4.05,-4.05,0,*57
1509264162.03,62137,10.13,70934.0,-3.37,-4.01,-4.05,0,*52
1509264163.28,62138,10.13,70948.8,-3.37,-4.05,-4.01,0,*5D
1509264164.5,62139,10.13,70970.0,-3.37,-4.05,-4.05,0,*58
1509264165.78,62140,10.13,70980.5,-3.37,-4.01,-4.01,0,*56
1509264167.07,62141,10.13,70990.5,-3.37,-4.01,-4.01,0,*57
1509264168.31,62142,10.13,70990.0,-3.37,-4.05,-4.01,0,*50
1509264169.57,62143,10.13,71002.0,-3.37,-4.01,-4.05,0,*51
1509264170.83,62144,10.13,71000.5,-3.37,-4.01,-4.05,0,*56
1509264172.02,62145,10.13,71006.0,-3.39,-4.05,-3.91,0,*57
1509264173.3,62146,10.13,70992.8,-3.37,-4.01,-4.01,0,*50
1509264174.55,62147,10.13,70814.8,-3.37,-4.05,-4.01,0,*55
1509264175.79,62148,10.13,70762.5,-3.35,-3.95,-4.01,0,*56
1509264177.02,62149,10.13,70776.8,-3.35,-3.95,-4.01,0,*57
1509264178.24,62150,10.13,70800.5,-3.35,-4.09,-4.01,0,*5D
1509264179.47,62151,10.13,70834.5,-3.37,-4.13,-4.05,0,*51
1509264180.69,62152,10.13,70840.3,-3.37,-4.13,-4.05,0,*52
1509264181.92,62153,10.13,70800.5,-3.37,-4.17,-4.05,0,*57
1509264183.14,62154,10.13,70796.5,-3.37,-4.13,-4.05,0,*54
1509264184.37,62155,10.13,70718.0,-3.37,-4.13,-4.13,0,*52
1509264185.59,62156,10.13,70730.3,-3.37,-4.13,-4.17,0,*55
1509264186.81,62157,10.13,70748.3,-3.37,-4.17,-4.05,0,*53
1509264188.04,62158,10.13,70882.0,-3.37,-4.17,-4.13,0,*5B
1509264189.26,62159,10.13,70864.0,-3.37,-4.17,-4.13,0,*5A
1509264190.49,62160,10.13,70860.3,-3.37,-4.17,-4.13,0,*50
1509264191.71,62161,10.13,70906.3,-3.37,-4.17,-4.13,0,*51
1509264192.94,62162,10.13,70858.3,-3.37,-4.13,-4.17,0,*52
1509264194.13,62163,10.13,70838.0,-3.39,-4.17,-4.17,0,*59
1509264195.35,62164,10.13,70822.3,-3.37,-4.13,-4.17,0,*54
1509264196.57,62165,10.13,70858.3,-3.37,-4.17,-4.13,0,*55
1509264197.8,62166,10.13,70830.0,-3.37,-4.13,-4.13,0,*52
1509264199.02,62167,10.13,70822.8,-3.37,-4.13,-4.17,0,*57
1509264200.24,62168,10.13,70798.8,-3.37,-4.17,-4.05,0,*5F
1509264201.47,62169,10.13,70816.5,-3.37,-4.17,-4.13,0,*59
1509264202.69,62170,10.13,70838.3,-3.37,-4.17,-4.13,0,*51
1509264203.92,62171,10.13,70846.3,-3.37,-4.13,-4.13,0,*54
1509264205.14,62172,10.13,70860.5,-3.37,-4.17,-4.17,0,*57
1509264206.36,62173,10.13,70878.3,-3.37,-4.13,-4.17,0,*52
1509264207.59,62174,10.13,70906.5,-3.37,-4.17,-4.13,0,*55
1509264208.81,62175,10.13,70900.0,-3.37,-4.13,-4.13,0,*50
1509264210.03,62176,10.13,70912.5,-3.37,-4.17,-4.17,0,*53
1509264211.23,62177,10.13,70906.5,-3.39,-4.13,-4.13,0,*5C
1509264212.43,62178,10.13,70896.3,-3.39,-4.13,-4.13,0,*53
1509264213.68,62179,10.13,70920.0,-3.37,-4.17,-4.01,0,*5B
1509264214.87,62180,10.13,70900.8,-3.39,-4.13,-4.05,0,*53
1509264216.1,62181,10.13,70894.0,-3.37,-4.17,-4.05,0,*58
1509264217.32,62182,10.13,70916.0,-3.37,-4.13,-4.05,0,*5F
1509264218.54,62183,10.13,70928.8,-3.37,-4.17,-4.13,0,*5D
1509264219.74,62184,10.13,70930.0,-3.39,-4.13,-4.13,0,*50
1509264220.97,62185,10.13,70934.0,-3.37,-4.13,-4.13,0,*5F
1509264222.2,62186,10.13,70980.0,-3.37,-4.13,-4.13,0,*5C
1509264223.42,62187,10.13,70904.8,-3.37,-4.05,-4.05,0,*5D
1509264224.65,62188,10.13,70864.0,-3.37,-4.13,-4.13,0,*52
1509264225.87,62189,10.13,70884.0,-3.37,-4.13,-4.13,0,*53
1509264227.07,62190,10.13,70894.5,-3.39,-4.17,-4.13,0,*51
1509264228.27,62191,10.13,70896.5,-3.39,-4.13,-4.13,0,*54
1509264229.49,62192,10.13,70906.8,-3.37,-4.13,-4.13,0,*59
1509264230.71,62193,10.13,70906.5,-3.39,-4.13,-4.01,0,*55
1509264231.91,62194,10.13,70880.8,-3.39,-4.17,-4.13,0,*55
1509264233.11,62195,10.13,70898.3,-3.39,-4.17,-4.13,0,*54
1509264234.33,62196,10.13,70906.5,-3.37,-4.17,-4.13,0,*59
1509264235.56,62197,10.13,70938.3,-3.37,-4.13,-4.13,0,*5C
1509264236.75,62198,10.13,70958.5,-3.39,-4.17,-4.13,0,*59
1509264237.95,62199,10.13,70926.3,-3.39,-4.13,-4.13,0,*5C
1509264239.15,62200,10.13,70934.3,-3.39,-4.17,-4.13,0,*5B
1509264240.37,62201,10.13,70946.8,-3.37,-4.17,-4.13,0,*54
1509264241.57,62202,10.13,70910.8,-3.39,-4.13,-4.13,0,*5D
1509264242.77,62203,10.13,70916.0,-3.39,-4.17,-4.13,0,*58
1509264243.99,62204,10.13,70950.0,-3.37,-4.13,-4.17,0,*51
1509264245.18,62205,10.13,70942.0,-3.39,-4.17,-4.13,0,*5E
1509264246.41,62206,10.13,70884.0,-3.37,-4.13,-4.13,0,*57
1509264247.63,62207,10.13,70896.3,-3.37,-4.17,-4.17,0,*56
1509264248.82,62208,10.13,70862.3,-3.39,-4.17,-4.17,0,*57
1509264250.02,62209,10.13,70882.0,-3.39,-4.13,-4.13,0,*56
1509264251.22,62210,10.13,70870.3,-3.39,-4.13,-4.13,0,*5E
1509264252.41,62211,10.13,70882.8,-3.39,-4.13,-4.13,0,*5F
1509264253.61,62212,10.13,70930.0,-3.39,-4.13,-4.05,0,*5B
1509264254.83,62213,10.13,70860.8,-3.37,-4.13,-4.05,0,*54
1509264256.03,62214,10.13,70870.3,-3.39,-4.13,-4.13,0,*5A
1509264257.23,62215,10.13,70842.3,-3.39,-4.13,-4.13,0,*5B
1509264258.45,62216,10.13,70820.8,-3.37,-4.05,-4.05,0,*56
1509264259.64,62217,10.13,70834.8,-3.39,-4.13,-4.05,0,*5E
1509264260.84,62218,10.13,70860.0,-3.39,-4.05,-4.05,0,*56
1509264262.06,62219,10.13,70892.5,-3.39,-4.05,-4.01,0,*53
1509264263.28,62220,10.13,70896.5,-3.37,-4.13,-4.05,0,*54
1509264264.48,62221,10.13,70914.3,-3.39,-4.05,-4.05,0,*5C
1509264265.73,62222,10.13,70916.0,-3.37,-4.05,-4.01,0,*55
1509264266.95,62223,10.13,70940.3,-3.39,-4.05,-4.01,0,*5A
1509264268.23,62224,10.13,70944.0,-3.37,-4.01,-4.01,0,*57
1509264269.43,62225,10.13,70912.5,-3.39,-4.05,-3.91,0,*52
1509264270.71,62226,10.13,70970.0,-3.37,-4.01,-4.01,0,*55
1509264271.93,62227,10.13,70942.3,-3.39,-4.05,-4.01,0,*5E
1509264273.19,62228,10.13,70858.5,-3.37,-4.01,-3.91,0,*55
1509264274.44,62229,10.13,70930.3,-3.39,-4.01,-4.01,0,*54
1509264275.66,62230,10.13,70946.5,-3.37,-4.05,-4.05,0,*52
1509264276.86,62231,10.13,70914.3,-3.39,-4.05,-4.05,0,*5D
1509264278.08,62232,10.13,70870.0,-3.37,-4.05,-3.91,0,*5A
1509264279.31,62233,10.13,70786.3,-3.37,-4.05,-3.91,0,*5B
1509264280.57,62234,10.13,70824.3,-3.37,-4.01,-4.05,0,*52
1509264281.82,62235,10.13,70862.3,-3.37,-4.05,-4.01,0,*53
1509264283.01,62236,10.13,70804.8,-3.39,-4.13,-4.13,0,*5A
1509264284.23,62237,10.13,70786.5,-3.37,-4.13,-4.17,0,*51
1509264285.46,62238,10.13,70812.0,-3.37,-4.17,-4.13,0,*5E
1509264286.68,62239,10.13,70766.5,-3.37,-4.17,-4.17,0,*5B
1509264287.88,62240,10.13,70830.3,-3.39,-4.17,-4.13,0,*5F
1509264289.11,62241,10.13,70884.3,-3.37,-4.17,-4.21,0,*51
1509264290.3,62242,10.13,70894.5,-3.39,-4.17,-4.17,0,*59
1509264291.49,62243,10.13,70794.0,-3.39,-4.17,-4.17,0,*58
1509264292.68,62244,10.13,70878.3,-3.39,-4.17,-4.17,0,*5F
1509264293.87,62245,10.13,70830.5,-3.39,-4.17,-4.17,0,*5E
1509264295.06,62246,10.13,70866.0,-3.39,-4.17,-4.17,0,*5D
1509264296.25,62247,10.13,70838.8,-3.39,-4.17,-4.17,0,*5C
1509264297.44,62248,10.13,70864.3,-3.39,-4.17,-4.17,0,*53
1509264298.63,62249,10.13,70800.3,-3.39,-4.17,-4.17,0,*52
1509264299.82,62250,10.13,70844.5,-3.39,-4.17,-4.17,0,*5A
1509264301.01,62251,10.13,70784.3,-3.39,-4.17,-4.17,0,*5B
1509264302.2,62252,10.13,70814.5,-3.39,-4.17,-4.17,0,*58
1509264303.39,62253,10.13,70810.5,-3.39,-4.17,-4.17,0,*59
1509264304.62,62254,10.13,70854.3,-3.37,-4.17,-4.13,0,*54
1509264305.81,62255,10.13,70842.3,-3.39,-4.17,-4.17,0,*5F
1509264307.0,62256,10.13,70832.8,-3.39,-4.17,-4.17,0,*5C
1509264308.2,62257,10.13,70864.5,-3.39,-4.29,-4.21,0,*55
1509264309.41,62258,10.13,70868.5,-3.39,-4.21,-4.21,0,*52
1509264310.63,62259,10.13,70886.8,-3.43,-4.25,-4.25,0,*5E
1509264311.86,62260,10.13,70924.0,-3.43,-4.21,-4.25,0,*50
1509264313.1,62261,10.13,70910.5,-3.43,-4.21,-4.21,0,*55
1509264314.28,62262,10.13,70936.8,-3.39,-4.17,-4.17,0,*5B
1509264315.48,62263,10.13,70932.3,-3.39,-4.21,-4.17,0,*5F
1509264316.68,62264,10.13,70884.5,-3.39,-4.17,-4.13,0,*59
1509264317.87,62265,10.13,70860.0,-3.39,-4.17,-4.17,0,*5C
1509264319.06,62266,10.13,70880.3,-3.39,-4.13,-4.17,0,*5B
1509264320.25,62267,10.13,70902.8,-3.39,-4.17,-4.17,0,*5E
1509264321.45,62268,10.13,70930.0,-3.39,-4.13,-4.13,0,*51
1509264322.67,62269,10.13,70912.0,-3.43,-4.21,-4.17,0,*58
1509264323.87,62270,10.13,70918.8,-3.45,-4.21,-4.25,0,*57
1509264325.11,62271,10.13,70916.5,-3.43,-4.21,-4.21,0,*54
1509264326.34,62272,10.13,70904.3,-3.43,-4.21,-4.21,0,*57
1509264327.53,62273,10.13,70892.3,-3.39,-4.17,-4.17,0,*5B
1509264328.73,62274,10.13,70900.8,-3.39,-4.13,-4.13,0,*5C
1509264329.92,62275,10.13,70898.8,-3.39,-4.17,-4.17,0,*5D
1509264331.14,62276,10.13,70892.5,-3.43,-4.17,-4.09,0,*5C
1509264332.33,62277,10.13,70872.3,-3.45,-4.21,-4.09,0,*5E
1509264333.55,62278,10.13,70866.3,-3.43,-4.09,-4.05,0,*51
1509264334.77,62279,10.13,70902.5,-3.43,-4.09,-4.09,0,*5C
1509264335.99,62280,10.13,70930.0,-3.43,-4.09,-4.09,0,*5A
1509264337.21,62281,10.13,70960.3,-3.43,-4.09,-4.09,0,*5B
1509264338.4,62282,10.13,70964.5,-3.45,-4.09,-4.05,0,*52
1509264339.6,62283,10.13,70930.5,-3.39,-4.05,-4.05,0,*54
1509264340.82,62284,10.13,70924.5,-3.43,-4.09,-4.09,0,*5E
1509264342.01,62285,10.13,70962.0,-3.39,-4.05,-4.05,0,*52
1509264343.26,62286,10.13,70918.3,-3.39,-4.01,-4.01,0,*51
1509264344.51,62287,10.13,70922.0,-3.39,-4.01,-4.01,0,*50
1509264345.77,62288,10.13,70862.0,-3.39,-4.01,-4.01,0,*5F
1509264346.99,62289,10.13,70820.5,-3.39,-4.05,-4.01,0,*5A
1509264348.21,62290,10.13,70852.0,-3.39,-4.05,-4.01,0,*52
1509264349.46,62291,10.13,70876.8,-3.39,-4.01,-4.01,0,*57
1509264350.71,62292,10.13,70926.8,-3.39,-4.01,-4.01,0,*54
1509264351.93,62293,10.13,70900.3,-3.43,-4.05,-4.05,0,*58
1509264353.16,62294,10.13,70834.5,-3.39,-4.01,-3.91,0,*5C
1509264354.41,62295,10.13,70830.3,-3.37,-4.05,-4.01,0,*59
1509264355.63,62296,10.13,70784.5,-3.37,-4.05,-4.05,0,*5E
1509264356.88,62297,10.13,70842.8,-3.37,-4.13,-4.01,0,*5C
1509264358.08,62298,10.13,70912.5,-3.39,-4.05,-4.05,0,*5E
1509264359.27,62299,10.13,70916.5,-3.39,-4.13,-4.05,0,*58
1509264360.47,62300,10.13,70896.5,-3.39,-4.13,-4.05,0,*59
1509264361.66,62301,10.13,70910.3,-3.39,-4.13,-4.05,0,*58
1509264362.86,62302,10.13,70918.8,-3.39,-4.05,-4.05,0,*5C
1509264364.05,62303,10.13,70892.8,-3.39,-4.13,-4.13,0,*5D
1509264365.25,62304,10.13,70840.3,-3.39,-4.13,-4.13,0,*5A
1509264366.44,62305,10.13,70788.0,-3.39,-4.13,-4.05,0,*5C
1509264367.66,62306,10.13,70796.0,-3.39,-4.05,-4.01,0,*5C
1509264368.86,62307,10.13,70794.3,-3.39,-4.13,-4.05,0,*5E
1509264370.05,62308,10.13,70808.8,-3.39,-4.05,-4.05,0,*56
1509264371.28,62309,10.13,70844.3,-3.39,-4.01,-4.05,0,*53
1509264372.5,62310,10.13,70872.3,-3.39,-4.05,-4.01,0,*5B
1509264373.78,62311,10.13,70880.8,-3.37,-4.01,-4.01,0,*50
1509264375.0,62312,10.13,70894.5,-3.39,-4.05,-4.01,0,*59
1509264376.22,62313,10.13,70916.8,-3.39,-4.05,-4.01,0,*58
1509264377.44,62314,10.13,70916.5,-3.39,-4.05,-4.01,0,*5F
1509264378.66,62315,10.13,70892.0,-3.39,-4.05,-4.01,0,*5E
1509264379.91,62316,10.13,70808.8,-3.39,-4.01,-4.01,0,*59
1509264381.14,62317,10.13,70818.8,-3.39,-4.01,-4.05,0,*5C
1509264382.39,62318,10.13,70842.5,-3.39,-4.01,-4.01,0,*57
1509264383.65,62319,10.13,70874.0,-3.37,-4.01,-4.05,0,*5C
1509264384.91,62320,10.13,70908.5,-3.37,-4.01,-3.91,0,*5C
1509264386.13,62321,10.13,70922.3,-3.39,-4.05,-4.01,0,*59
1509264387.41,62322,10.13,70904.8,-3.37,-4.01,-4.01,0,*50
1509264388.64,62323,10.13,70924.8,-3.39,-4.01,-3.91,0,*51
1509264389.86,62324,10.13,70920.0,-3.37,-4.05,-3.87,0,*5B
1509264391.08,62325,10.13,70916.0,-3.37,-4.05,-3.91,0,*5D
1509264392.31,62326,10.13,70942.0,-3.39,-4.01,-3.91,0,*54
1509264393.52,62327,10.13,70936.8,-3.35,-3.95,-3.87,0,*54
1509264394.72,62328,10.13,70934.3,-3.39,-3.91,-3.91,0,*54
1509264395.95,62329,10.13,70926.0,-3.39,-3.91,-4.01,0,*5B
1509264397.18,62330,10.13,70922.0,-3.39,-4.01,-3.91,0,*53
1509264398.46,62331,10.13,70900.8,-3.37,-4.01,-4.01,0,*52
1509264399.74,62332,10.13,70880.5,-3.37,-4.01,-4.01,0,*51
1509264400.99,62333,10.13,70812.8,-3.37,-4.05,-4.01,0,*54
1509264402.19,62334,10.13,70856.8,-3.39,-4.05,-4.05,0,*59
1509264403.41,62335,10.13,70840.5,-3.37,-4.05,-4.05,0,*56
1509264404.63,62336,10.13,70850.5,-3.39,-4.05,-4.01,0,*5F
1509264405.83,62337,10.13,70890.8,-3.39,-4.05,-4.05,0,*5A
1509264407.02,62338,10.13,70844.5,-3.39,-4.13,-4.13,0,*55
1509264408.22,62339,10.13,70880.5,-3.39,-4.17,-4.13,0,*50
1509264409.42,62340,10.13,70910.0,-3.39,-4.13,-4.13,0,*5A
1509264410.61,62341,10.13,70916.0,-3.39,-4.13,-4.13,0,*5B
1509264411.81,62342,10.13,70916.3,-3.39,-4.17,-4.05,0,*5B
1509264413.01,62343,10.13,70910.0,-3.39,-4.13,-4.13,0,*59
1509264414.23,62344,10.13,70906.8,-3.37,-4.13,-4.13,0,*50
1509264415.43,62345,10.13,70886.5,-3.39,-4.17,-4.13,0,*5B
1509264416.62,62346,10.13,70908.8,-3.39,-4.13,-4.17,0,*58
1509264417.82,62347,10.13,70850.3,-3.39,-4.13,-4.13,0,*5D
1509264419.01,62348,10.13,70850.5,-3.39,-4.17,-4.13,0,*56
1509264420.24,62349,10.13,70822.3,-3.37,-4.17,-4.13,0,*59
1509264421.44,62350,10.13,70822.5,-3.39,-4.13,-4.13,0,*5B
1509264422.63,62351,10.13,70806.8,-3.39,-4.13,-4.17,0,*5E
1509264423.85,62352,10.13,70778.8,-3.37,-4.17,-4.13,0,*53
1509264425.08,62353,10.13,70780.0,-3.37,-4.13,-4.13,0,*56
1509264426.28,62354,10.13,70774.3,-3.39,-4.13,-4.13,0,*5F
1509264427.47,62355,10.13,70768.3,-3.39,-4.17,-4.13,0,*5A
1509264428.67,62356,10.13,70794.8,-3.39,-4.13,-4.05,0,*5A
1509264429.89,62357,10.13,70832.0,-3.37,-4.13,-4.05,0,*55
1509264431.09,62358,10.13,70872.5,-3.39,-4.13,-4.13,0,*53
1509264432.28,62359,10.13,70880.8,-3.39,-4.13,-4.05,0,*55
1509264433.48,62360,10.13,70874.3,-3.39,-4.13,-4.05,0,*5F
1509264434.67,62361,10.13,70874.5,-3.39,-4.13,-4.05,0,*5E
1509264435.87,62362,10.13,70872.3,-3.39,-4.13,-4.05,0,*5D
1509264437.06,62363,10.13,70884.5,-3.39,-4.13,-4.05,0,*5C
1509264438.26,62364,10.13,70896.0,-3.39,-4.13,-4.05,0,*5B
1509264439.45,62365,10.13,70896.8,-3.39,-4.13,-4.13,0,*5D
1509264440.65,62366,10.13,70898.3,-3.39,-4.05,-4.05,0,*5E
1509264441.84,62367,10.13,70884.5,-3.39,-4.05,-4.13,0,*58
1509264443.04,62368,10.13,70894.8,-3.39,-4.05,-4.05,0,*50
1509264444.24,62369,10.13,70916.0,-3.39,-4.05,-4.13,0,*56
1509264445.43,62370,10.13,70896.5,-3.39,-4.05,-4.05,0,*59
1509264446.65,62371,10.13,70876.3,-3.39,-4.13,-4.01,0,*5B
1509264447.87,62372,10.13,70876.0,-3.39,-4.13,-4.01,0,*58
1509264449.07,62373,10.13,70894.0,-3.39,-4.13,-4.05,0,*5D
1509264450.26,62374,10.13,70914.8,-3.39,-4.13,-4.05,0,*5A
1509264451.48,62375,10.13,70918.3,-3.43,-4.17,-4.09,0,*5E
1509264452.7,62376,10.13,70902.0,-3.43,-4.09,-4.05,0,*5E
1509264453.91,62377,10.13,70902.0,-3.43,-4.17,-4.17,0,*53
1509264455.14,62378,10.13,70882.3,-3.43,-4.21,-4.17,0,*59
1509264456.33,62379,10.13,70860.5,-3.45,-4.09,-4.17,0,*54
1509264457.52,62380,10.13,70860.3,-3.39,-4.13,-4.05,0,*51
1509264458.71,62381,10.13,70884.0,-3.39,-4.13,-4.17,0,*53
1509264459.91,62382,10.13,70906.5,-3.39,-4.13,-4.13,0,*54
1509264461.1,62383,10.13,70910.0,-3.39,-4.13,-4.13,0,*55
1509264462.32,62384,10.13,70918.3,-3.43,-4.17,-4.17,0,*5F
1509264463.54,62385,10.13,70910.3,-3.43,-4.09,-4.09,0,*5E
1509264464.76,62386,10.13,70894.0,-3.43,-4.17,-4.09,0,*52
1509264465.98,62387,10.13,70880.3,-3.43,-4.17,-4.05,0,*5F
1509264467.19,62388,10.13,70876.8,-3.43,-4.17,-4.09,0,*5C
1509264468.41,62389,10.13,70868.5,-3.43,-4.17,-4.09,0,*5D
1509264469.64,62390,10.13,70856.3,-3.43,-4.17,-4.21,0,*5F
1509264470.85,62391,10.13,70818.8,-3.43,-4.09,-4.17,0,*54
1509264472.07,62392,10.13,70928.8,-3.43,-4.17,-4.17,0,*58
1509264473.29,62393,10.13,70896.5,-3.43,-4.21,-4.17,0,*5C
1509264474.5,62394,10.13,70888.0,-3.43,-4.17,-4.17,0,*5E
1509264475.72,62395,10.13,70886.8,-3.43,-4.17,-4.17,0,*5F
1509264476.94,62396,10.13,70890.8,-3.43,-4.17,-4.09,0,*53
1509264478.16,62397,10.13,70886.8,-3.43,-4.21,-4.09,0,*57
1509264479.38,62398,10.13,70924.5,-3.43,-4.17,-4.05,0,*51
1509264480.58,62399,10.13,70924.5,-3.45,-4.21,-4.13,0,*54
1509264481.8,62400,10.13,70918.3,-3.43,-4.17,-4.09,0,*5B
1509264483.0,62401,10.13,70922.0,-3.45,-4.13,-4.09,0,*58
1509264484.2,62402,10.13,70908.0,-3.45,-4.21,-4.13,0,*51
1509264485.42,62403,10.13,70934.8,-3.43,-4.09,-4.09,0,*57
1509264486.63,62404,10.13,70930.5,-3.43,-4.09,-4.09,0,*50
1509264487.86,62405,10.13,70942.8,-3.43,-4.21,-4.05,0,*57
1509264489.14,62406,10.13,70922.5,-3.37,-4.01,-4.01,0,*51
1509264490.36,62407,10.13,70932.3,-3.43,-4.09,-4.09,0,*53
1509264491.58,62408,10.13,70926.3,-3.43,-4.17,-4.09,0,*53
1509264492.8,62409,10.13,70934.3,-3.43,-4.17,-4.09,0,*52
1509264494.0,62410,10.13,70920.3,-3.45,-4.21,-4.13,0,*52
1509264495.2,62411,10.13,70920.3,-3.45,-4.25,-4.21,0,*56
1509264496.42,62412,10.13,70918.0,-3.43,-4.17,-4.17,0,*57
1509264497.65,62413,10.13,70910.5,-3.43,-4.21,-4.21,0,*56
1509264498.86,62414,10.13,70918.8,-3.45,-4.21,-4.21,0,*57
1509264500.07,62415,10.13,70908.8,-3.43,-4.17,-4.17,0,*50
1509264501.3,62416,10.13,70924.0,-3.43,-4.21,-4.09,0,*59
1509264502.49,62417,10.13,70902.8,-3.45,-4.25,-4.13,0,*51
1509264503.7,62418,10.13,70892.0,-3.45,-4.21,-4.25,0,*5F